Starlink 11640

operational
NORAD ID: 63314 Int'l Des: 2025-057 Owner: SPXS Country: US Constellation: starlink
LEOCIRCULAR

关于 Starlink 11640

正在加载描述...

实时位置

正在加载3D地球...

即将过境

高度历史

Altitude vs Time

uPlot chart will show altitude changes over time

两行轨道根数

1 63314U 25057H 25259.01006039 .00233298 00000-0 17599-2 0 9998
2 63314 42.9983 237.5649 0002227 230.6478 129.4192 15.70990140 29705
Epoch: Sep 16, 2025 • Age: 21 hours

当前状态

高度 361.5 km
速度 7.69 km/s
星下点 -30.05°S, 138.83°E
发射日期 Mar 18, 2025
运行时间 0.4 years
类型 internet

技术详情

分类 Payload
质量 960.00 kg
干质量 910.00 kg
总质量 960.00 kg
长度 0.30 m
直径 4.10 m
跨度 29.00 m
形状 Box + pan
制造商 SPXS
平台类型 Starlink V2MD
阶段状态 In Orbit
所有者/国家 SPXS/US

大型星座

Loading constellations...